| time (UTC) | temp C | wind direction | speed KPH | gust KPH | rain 1hr cm | rain 24hr cm | rain mn cm | humidity % | barometer mb |
| 20260510210919 | 8 | 251 | 0.0 | 0.0 | 0.10 | 6.50 | 1.02 | 88 | 1014.2 |
| 20260510205928 | 8 | 251 | 0.0 | 6.4 | 0.10 | 6.71 | 1.02 | 87 | 1014.3 |
| 20260510204917 | 8 | 251 | 1.6 | 11.3 | 0.10 | 6.71 | 1.02 | 87 | 1014.2 |
| 20260510203927 | 9 | 250 | 1.6 | 12.9 | 0.10 | 6.71 | 1.02 | 86 | 1014.1 |
| 20260510202928 | 9 | 249 | 3.2 | 9.7 | 0.10 | 6.71 | 1.02 | 85 | 1013.9 |
| 20260510201922 | 9 | 259 | 3.2 | 11.3 | 0.00 | 6.60 | 0.99 | 85 | 1013.7 |
| 20260510200913 | 9 | 254 | 3.2 | 0.0 | 0.00 | 0.00 | 0.99 | 84 | 1013.3 |
| 20260510195914 | 9 | 257 | 4.8 | 14.5 | 0.00 | 7.11 | 0.99 | 83 | 1013.4 |
| 20260510194924 | 9 | 245 | 0.0 | 9.7 | 0.00 | 7.11 | 0.99 | 81 | 1013.2 |
| 20260510193918 | 9 | 238 | 0.0 | 6.4 | 0.00 | 7.11 | 0.99 | 81 | 1013.1 |
| 20260510192922 | 10 | 238 | 0.0 | 8.0 | 0.00 | 7.11 | 0.99 | 79 | 1012.9 |
| 20260510191928 | 10 | 240 | 0.0 | 3.2 | 0.00 | 7.11 | 0.99 | 79 | 1012.7 |
| 20260510190917 | 10 | 194 | 0.0 | 1.6 | 0.00 | 7.11 | 0.99 | 78 | 1012.7 |
| 20260510185926 | 10 | 183 | 1.6 | 11.3 | 0.00 | 7.11 | 0.99 | 77 | 1012.5 |
| 20260510184915 | 10 | 169 | 0.0 | 9.7 | 0.00 | 7.11 | 0.99 | 76 | 1012.5 |
| 20260510183925 | 11 | 189 | 0.0 | 0.0 | 0.00 | 7.11 | 0.99 | 75 | 1012.5 |
| 20260510182911 | 11 | 189 | 0.0 | 11.3 | 0.00 | 7.11 | 0.99 | 74 | 1012.5 |
| 20260510181920 | 11 | 159 | 1.6 | 12.9 | 0.00 | 7.11 | 0.99 | 72 | 1012.5 |
| 20260510180912 | 12 | 182 | 1.6 | 12.9 | 0.00 | 7.11 | 0.99 | 71 | 1012.4 |
| 20260510175916 | 12 | 182 | 3.2 | 9.7 | 0.00 | 8.20 | 0.99 | 68 | 1012.3 |
| 20260510174930 | 12 | 225 | 0.0 | 0.0 | 0.00 | 8.20 | 0.99 | 65 | 1012.3 |
| 20260510173918 | 13 | 245 | 1.6 | 11.3 | 0.00 | 8.20 | 0.99 | 63 | 1012.3 |
| 20260510172923 | 13 | 264 | 1.6 | 11.3 | 0.00 | 8.20 | 0.99 | 64 | 1012.3 |
| 20260510171913 | 13 | 254 | 0.0 | 8.0 | 0.00 | 8.20 | 0.99 | 65 | 1012.2 |
| 20260510170927 | 12 | 254 | 3.2 | 14.5 | 0.00 | 8.20 | 0.99 | 66 | 1012.1 |
| 20260510165910 | 12 | 252 | 3.2 | 17.7 | 0.00 | 8.20 | 0.99 | 66 | 1012.2 |
| 20260510164920 | 12 | 223 | 4.8 | 19.3 | 0.00 | 8.20 | 0.99 | 66 | 1012.4 |
| 20260510163910 | 12 | 174 | 6.4 | 20.9 | 0.00 | 8.20 | 0.99 | 66 | 1012.3 |
| 20260510162919 | 12 | 178 | 4.8 | 19.3 | 0.00 | 8.20 | 0.99 | 66 | 1012.3 |
| 20260510161928 | 13 | 185 | 4.8 | 16.1 | 0.00 | 8.20 | 0.99 | 66 | 1012.1 |
| 20260510160918 | 13 | 247 | 0.0 | 24.1 | 0.00 | 8.20 | 0.99 | 69 | 1012.1 |
| 20260510155923 | 12 | 152 | 9.7 | 22.5 | 0.00 | 8.61 | 0.99 | 71 | 1011.8 |
| 20260510154916 | 12 | 198 | 1.6 | 19.3 | 0.00 | 8.61 | 0.99 | 73 | 1011.7 |
| 20260510153927 | 12 | 165 | 6.4 | 17.7 | 0.00 | 8.61 | 0.99 | 77 | 1011.9 |
| 20260510152910 | 12 | 248 | 3.2 | 11.3 | 0.00 | 8.61 | 0.99 | 84 | 1012.0 |
| 20260510151924 | 11 | 198 | 1.6 | 11.3 | 0.00 | 8.61 | 0.99 | 86 | 1012.0 |
| 20260510150915 | 11 | 160 | 4.8 | 12.9 | 0.00 | 8.61 | 0.99 | 87 | 1012.0 |
| 20260510145920 | 11 | 246 | 6.4 | 20.9 | 0.00 | 8.61 | 0.99 | 89 | 1012.3 |
| 20260510144928 | 10 | 229 | 3.2 | 14.5 | 0.00 | 8.61 | 0.99 | 90 | 1012.3 |
| 20260510143922 | 10 | 195 | 4.8 | 12.9 | 0.00 | 8.61 | 0.99 | 90 | 1012.3 |
| 20260510142926 | 10 | 169 | 4.8 | 12.9 | 0.00 | 8.61 | 0.99 | 90 | 1012.1 |
| 20260510141916 | 10 | 161 | 4.8 | 14.5 | 0.00 | 8.61 | 0.99 | 90 | 1012.1 |
| 20260510140925 | 10 | 171 | 4.8 | 16.1 | 0.00 | 8.61 | 0.99 | 91 | 1012.1 |
| 20260510135928 | 10 | 170 | 4.8 | 22.5 | 0.00 | 8.99 | 0.99 | 91 | 1012.1 |
| 20260510133917 | 10 | 166 | 4.8 | 16.1 | 0.00 | 8.99 | 0.99 | 92 | 1012.1 |
| 20260510132921 | 10 | 172 | 1.6 | 16.1 | 0.00 | 8.99 | 0.99 | 92 | 1012.2 |
| 20260510131927 | 10 | 175 | 1.6 | 16.1 | 0.00 | 8.99 | 0.99 | 93 | 1012.3 |
| 20260510130914 | 10 | 160 | 1.6 | 11.3 | 0.00 | 8.99 | 0.99 | 93 | 1012.5 |
| 20260510125929 | 10 | 162 | 1.6 | 9.7 | 0.00 | 9.19 | 0.99 | 93 | 1012.5 |
| 20260510124917 | 10 | 161 | 0.0 | 9.7 | 0.00 | 9.19 | 0.99 | 93 | 1012.4 |
| 20260510123928 | 10 | 155 | 0.0 | 1.6 | 0.00 | 9.19 | 0.99 | 93 | 1012.3 |
| 20260510122930 | 10 | 155 | 0.0 | 12.9 | 0.00 | 9.19 | 0.99 | 93 | 1012.4 |
| 20260510121915 | 10 | 169 | 1.6 | 11.3 | 0.00 | 9.19 | 0.99 | 94 | 1012.4 |
| 20260510120924 | 9 | 177 | 0.0 | 8.0 | 0.10 | 9.19 | 0.99 | 94 | 1012.7 |
| 20260510115912 | 10 | 252 | 1.6 | 6.4 | 0.10 | 9.19 | 0.99 | 94 | 1012.8 |
| 20260510114921 | 10 | 254 | 0.0 | 11.3 | 0.41 | 9.19 | 0.99 | 94 | 1012.8 |
| 20260510113912 | 10 | 254 | 1.6 | 11.3 | 0.79 | 9.19 | 0.99 | 94 | 1012.4 |
| 20260510112916 | 10 | 251 | 1.6 | 8.0 | 2.01 | 9.19 | 0.99 | 94 | 1012.4 |
| 20260510111929 | 10 | 253 | 0.0 | 11.3 | 2.69 | 9.19 | 0.99 | 94 | 1012.4 |
| 20260510110918 | 9 | 243 | 1.6 | 14.5 | 2.79 | 9.09 | 0.99 | 95 | 1012.5 |
| 20260510105922 | 7 | 304 | 1.6 | 14.5 | 2.90 | 9.09 | 0.99 | 94 | 1012.4 |
| 20260510104916 | 7 | 254 | 6.4 | 16.1 | 2.49 | 8.71 | 0.89 | 94 | 1012.7 |
| 20260510103926 | 8 | 197 | 8.0 | 27.4 | 2.11 | 8.31 | 0.81 | 93 | 1012.7 |
| 20260510102930 | 8 | 148 | 1.6 | 9.7 | 0.99 | 7.19 | 0.61 | 94 | 1012.1 |
| 20260510101919 | 8 | 159 | 1.6 | 16.1 | 0.30 | 6.50 | 0.46 | 94 | 1012.3 |
| 20260510100914 | 9 | 182 | 0.0 | 17.7 | 0.10 | 6.20 | 0.41 | 94 | 1012.3 |
| 20260510095919 | 9 | 174 | 6.4 | 14.5 | 0.20 | 6.20 | 0.41 | 94 | 1012.4 |
| 20260510094928 | 9 | 175 | 1.6 | 14.5 | 0.30 | 6.20 | 0.41 | 94 | 1012.5 |
| 20260510093916 | 10 | 178 | 1.6 | 17.7 | 0.30 | 6.20 | 0.41 | 94 | 1012.4 |
| 20260510092925 | 9 | 206 | 4.8 | 16.1 | 0.41 | 6.20 | 0.41 | 94 | 1012.4 |
| 20260510091915 | 8 | 178 | 8.0 | 12.9 | 0.41 | 6.20 | 0.41 | 94 | 1012.7 |
| 20260510090923 | 8 | 145 | 4.8 | 14.5 | 0.30 | 6.10 | 0.38 | 94 | 1012.6 |
| 20260510085927 | 8 | 171 | 4.8 | 11.3 | 0.41 | 5.99 | 0.36 | 94 | 1012.6 |
| 20260510084920 | 8 | 174 | 3.2 | 14.5 | 0.41 | 5.89 | 0.33 | 94 | 1012.6 |
| 20260510083930 | 8 | 174 | 0.0 | 11.3 | 0.71 | 5.89 | 0.33 | 94 | 1012.7 |
| 20260510082920 | 8 | 186 | 1.6 | 9.7 | 0.71 | 5.79 | 0.33 | 94 | 1012.7 |
| 20260510081929 | 8 | 160 | 1.6 | 12.9 | 0.71 | 5.79 | 0.33 | 94 | 1012.7 |
| 20260510080924 | 8 | 153 | 4.8 | 12.9 | 0.71 | 5.79 | 0.33 | 94 | 1012.9 |
| 20260510075927 | 8 | 168 | 0.0 | 8.0 | 0.51 | 5.59 | 0.28 | 94 | 1013.0 |
| 20260510074922 | 8 | 187 | 1.6 | 9.7 | 0.30 | 5.41 | 0.23 | 94 | 1013.0 |
| 20260510073916 | 8 | 173 | 3.2 | 12.9 | 0.10 | 5.21 | 0.20 | 94 | 1013.0 |
| 20260510072919 | 8 | 180 | 1.6 | 9.7 | 0.00 | 5.11 | 0.18 | 94 | 1012.9 |
| 20260510071929 | 8 | 180 | 3.2 | 12.9 | 0.30 | 5.11 | 0.18 | 94 | 1013.0 |
| 20260510070919 | 8 | 176 | 1.6 | 8.0 | 0.51 | 5.11 | 0.18 | 94 | 1012.8 |
| 20260510065926 | 7 | 178 | 0.0 | 8.0 | 0.51 | 5.11 | 0.18 | 94 | 1012.8 |
| 20260510064912 | 7 | 178 | 0.0 | 4.8 | 0.51 | 5.11 | 0.18 | 94 | 1012.8 |
| 20260510063923 | 7 | 178 | 1.6 | 6.4 | 0.51 | 5.11 | 0.18 | 94 | 1012.8 |
| 20260510062926 | 7 | 178 | 0.0 | 9.7 | 0.51 | 5.11 | 0.18 | 94 | 1012.7 |
| 20260510061920 | 7 | 178 | 0.0 | 4.8 | 0.10 | 4.70 | 0.10 | 94 | 1012.6 |
| 20260510060930 | 7 | 178 | 0.0 | 4.8 | 0.00 | 4.60 | 0.08 | 94 | 1012.7 |
| 20260510055911 | 7 | 178 | 0.0 | 9.7 | 0.10 | 4.60 | 0.08 | 94 | 1012.6 |
| 20260510054920 | 7 | 177 | 3.2 | 9.7 | 0.10 | 4.60 | 0.08 | 94 | 1012.5 |
| 20260510053914 | 7 | 180 | 0.0 | 8.0 | 0.10 | 4.60 | 0.08 | 94 | 1012.4 |
| 20260510052918 | 7 | 182 | 0.0 | 9.7 | 0.10 | 4.60 | 0.08 | 94 | 1012.4 |
| 20260510051928 | 7 | 183 | 0.0 | 3.2 | 0.10 | 4.60 | 0.08 | 94 | 1012.4 |
| 20260510050916 | 7 | 184 | 0.0 | 0.0 | 0.10 | 4.60 | 0.08 | 94 | 1012.4 |
| 20260510045923 | 7 | 184 | 0.0 | 6.4 | 0.00 | 4.50 | 0.05 | 94 | 1012.4 |
| 20260510044911 | 7 | 185 | 0.0 | 0.0 | 0.10 | 4.50 | 0.05 | 94 | 1012.4 |
| 20260510043922 | 7 | 185 | 0.0 | 6.4 | 0.20 | 4.50 | 0.05 | 94 | 1012.4 |
| 20260510042925 | 7 | 185 | 0.0 | 8.0 | 0.20 | 4.50 | 0.05 | 94 | 1012.4 |
| 20260510041919 | 7 | 186 | 1.6 | 9.7 | 0.20 | 4.50 | 0.05 | 93 | 1012.4 |
| 20260510040910 | 7 | 216 | 0.0 | 0.0 | 0.20 | 4.50 | 0.05 | 94 | 1012.5 |
| 20260510035913 | 7 | 216 | 0.0 | 8.0 | 0.20 | 4.50 | 0.05 | 94 | 1012.6 |
| 20260510034923 | 7 | 220 | 0.0 | 8.0 | 0.10 | 4.39 | 0.05 | 94 | 1012.6 |
| 20260510033917 | 7 | 172 | 3.2 | 12.9 | 0.00 | 4.29 | 0.03 | 94 | 1012.6 |
| 20260510032920 | 7 | 172 | 0.0 | 12.9 | 0.00 | 4.29 | 0.03 | 93 | 1012.6 |
| 20260510031928 | 7 | 176 | 1.6 | 9.7 | 0.00 | 4.29 | 0.03 | 93 | 1012.7 |
| 20260510030922 | 7 | 177 | 0.0 | 0.0 | 0.00 | 4.29 | 0.03 | 93 | 1012.8 |
| 20260510025926 | 8 | 177 | 0.0 | 0.0 | 0.00 | 4.29 | 0.03 | 93 | 1012.8 |
| 20260510024915 | 8 | 177 | 0.0 | 9.7 | 0.00 | 4.29 | 0.03 | 93 | 1012.9 |
| 20260510023927 | 8 | 178 | 0.0 | 0.0 | 0.00 | 4.29 | 0.03 | 93 | 1012.9 |
| 20260510022914 | 8 | 178 | 0.0 | 3.2 | 0.00 | 4.29 | 0.03 | 93 | 1013.0 |
| 20260510021922 | 8 | 178 | 0.0 | 4.8 | 0.00 | 4.29 | 0.03 | 93 | 1013.0 |
| 20260510020913 | 8 | 179 | 0.0 | 11.3 | 0.00 | 4.29 | 0.03 | 93 | 1012.8 |
| 20260510015916 | 8 | 182 | 0.0 | 0.0 | 0.10 | 4.29 | 0.03 | 93 | 1013.0 |
| 20260510014925 | 8 | 182 | 0.0 | 0.0 | 0.10 | 4.29 | 0.03 | 93 | 1013.0 |
| 20260510013921 | 8 | 182 | 0.0 | 6.4 | 0.10 | 4.29 | 0.03 | 93 | 1012.9 |
| 20260510012925 | 8 | 182 | 0.0 | 0.0 | 0.10 | 4.29 | 0.03 | 93 | 1012.9 |
| 20260510011915 | 8 | 182 | 0.0 | 0.0 | 0.10 | 4.29 | 0.03 | 93 | 1013.0 |
| 20260510010929 | 8 | 182 | 0.0 | 0.0 | 0.10 | 4.29 | 0.03 | 93 | 1013.1 |
| 20260510005911 | 8 | 182 | 0.0 | 8.0 | 0.00 | 4.19 | 0.00 | 93 | 1013.2 |
| 20260510004921 | 8 | 167 | 0.0 | 9.7 | 0.00 | 4.19 | 0.00 | 93 | 1013.1 |
| 20260510003912 | 8 | 267 | 0.0 | 0.0 | 0.00 | 4.19 | 0.00 | 93 | 1013.3 |
| 20260510002920 | 8 | 267 | 0.0 | 0.0 | 0.00 | 4.19 | 0.00 | 93 | 1013.3 |
| 20260510001929 | 7 | 267 | 0.0 | 0.0 | 0.00 | 4.19 | 0.00 | 92 | 1013.3 |
| 20260510000917 | 7 | 267 | 0.0 | 6.4 | 0.00 | 4.19 | 0.00 | 92 | 1013.3 |
| 20260509235921 | 7 | 268 | 0.0 | 0.0 | 0.00 | 4.19 | 0.84 | 92 | 1013.3 |
| 20260509234913 | 7 | 268 | 0.0 | 0.0 | 0.00 | 4.19 | 0.84 | 92 | 1013.4 |
| 20260509233924 | 7 | 268 | 0.0 | 0.0 | 0.00 | 4.19 | 0.84 | 92 | 1013.4 |
| 20260509232926 | 7 | 268 | 0.0 | 0.0 | 0.00 | 4.19 | 0.84 | 92 | 1013.2 |
| 20260509231915 | 7 | 268 | 0.0 | 0.0 | 0.00 | 4.19 | 0.84 | 92 | 1013.3 |
| 20260509230911 | 7 | 268 | 0.0 | 0.0 | 0.00 | 4.19 | 0.84 | 92 | 1013.3 |
| 20260509225914 | 7 | 268 | 0.0 | 0.0 | 0.00 | 4.19 | 0.84 | 92 | 1013.3 |
| 20260509224924 | 7 | 268 | 0.0 | 0.0 | 0.00 | 4.19 | 0.84 | 92 | 1013.3 |
| 20260509223917 | 7 | 268 | 0.0 | 0.0 | 0.00 | 4.19 | 0.84 | 91 | 1013.0 |
| 20260509222922 | 7 | 268 | 0.0 | 0.0 | 0.20 | 4.19 | 0.84 | 92 | 1013.0 |
| 20260509221911 | 7 | 268 | 0.0 | 0.0 | 0.41 | 4.19 | 0.84 | 92 | 1013.1 |
| 20260509220918 | 7 | 268 | 0.0 | 0.0 | 0.89 | 4.19 | 0.84 | 92 | 1013.1 |
| 20260509215927 | 7 | 268 | 0.0 | 4.8 | 1.50 | 4.19 | 0.84 | 92 | 1012.8 |
| 20260509213927 | 7 | 267 | 4.8 | 12.9 | 1.60 | 4.19 | 0.84 | 92 | 1012.4 |
| 20260509212911 | 7 | 273 | 9.7 | 24.1 | 1.40 | 3.99 | 0.79 | 92 | 1012.5 |
| 20260509211925 | 8 | 248 | 14.5 | 32.2 | 1.09 | 3.71 | 0.74 | 92 | 1012.4 |